Weather Roundup
Issued by NWS Chicago, IL

Home | Current Version | Previous Version | Text Only | Print | Product List | Glossary Off
Versions: 1 2 3 4 5 6 7 8 9 10 11 12 13 14 15 16 17 18 19 20 21 22 23 24 25 26 27 28 29 30 31 32 33 34 35 36 37 38 39 40 41 42 43 44 45 46 47 48 49 50

000
NZUS59 KLOT 231504
HRRLOT

CHICAGO AREA WEATHER ROUNDUP
NATIONAL WEATHER SERVICE CHICAGO/ROMEOVILLE IL
1000 AM CDT TUE MAY 23 2017

NOTE: "FAIR" INDICATES FEW OR NO CLOUDS BELOW 12,000 FEET WITH NO
SIGNIFICANT WEATHER AND/OR OBSTRUCTIONS TO VISIBILITY.

* THESE STATIONS ARE NOT UNDER NWS QUALITY CONTROL. THEY ALSO MAY NOT
  REPORT WEATHER SUCH AS PRECIPITATION OR FOG.

ILZ005-006-012>014-019>023-231600-
NORTHEAST ILLINOIS

CITY           SKY/WX    TMP DP  RH WIND       PRES   REMARKS
OHARE          LGT RAIN  59  55  87 SW10      29.81S
MIDWAY         LGT RAIN  59  56  89 W9        29.82F
AURORA         CLOUDY    58  56  93 S6        29.82S
LANSING*       LGT RAIN  59  57  95 W7        29.83F
WAUKEGAN       CLOUDY    60  53  77 SW10      29.80S
DUPAGE AIRPORT LGT RAIN  57  56  96 S8        29.80F
WHEELING       LGT RAIN  59  57  93 SW6       29.82S
KANKAKEE*      CLOUDY    63  55  75 CALM      29.84S
MORRIS*        CLOUDY    58  56  92 CALM      29.81F
LEWIS AIRPORT* DRIZZLE   57  57  97 SW6       29.83S
NORTHERLY ISL    N/A     59  54  83 SW7         N/A
$$

WIZ051-052-058>065-066-070>072-231600-
SOUTHEAST WISCONSIN

CITY           SKY/WX    TMP DP  RH WIND       PRES   REMARKS
MILWAUKEE      CLOUDY    62  54  74 SW8       29.78F
KENOSHA*       CLOUDY    60  53  77 SW8       29.79S
RACINE*        PTSUNNY   61  53  75 SW6       29.80S
WAUKESHA       PTSUNNY   57  54  88 S5        29.79F
$$

INZ001>003-010>013-019-020-231600-
NORTHWEST INDIANA

CITY           SKY/WX    TMP DP  RH WIND       PRES   REMARKS
GARY*          LGT RAIN  61  55  82 W13       29.84S
MICHIGAN CITY* NOT AVBL
RENSSELAER*    NOT AVBL
VALPARAISO     LGT RAIN  64  55  72 W10       29.84S
$$

LMZ740>746-231600-
SOUTHERN LAKE MICHIGAN

STATION/POSITION TIME  SKY/WX   TEMP WIND        PRES    VSBY
                                AIR  DIR/SP/G
                 (UTC)          (F)  (DEG/KT/KT) (MB)    (MI)
HARRISON CRIB    1440            60  260/ 14/ 16   N/A
BURNHAM HARBOR   1500            59  250/  5/ 14   N/A
CALUMET HARBOR   1430            59  230/  5/ 12 1009.6F
BURNS HARBOR     1440            59  250/ 10/ 13 1010.5S
MICHIGAN CITY    1440            59  240/ 11/ 11   N/A
$$

ABBREVIATIONS USED IN REMARKS
   TC - TEMPERATURE IN CELSIUS
  WCI - WIND CHILL INDEX
   HX - HEAT INDEX
  VSB - VISIBILITY
$$




USA.gov is the U.S. government's official web portal to all federal, state and local government web resources and services.